"Time","Temp","Dewpoint","Humidity","Pressure","Direction","Speed","Gust","Precip","PrecipRate"
"02:34:57","25","19.1","78","30.42","70","0","3.5","0.00","0.00"
"03:04:57","24","18.1","78","30.41","70","0","0","0.00","0.00"
"03:09:59","23.9","18.2","78.6","30.41","70","0","0","0.00","0.00"
"03:11:24","23.8","18.2","79","30.41","70","0","0","0.00","0.00"
"03:54:43","21.8","16.6","80","30.39","70","0","0","0.00","0.00"
"03:59:59","21.6","16.4","80","30.39","70","0","0","0.00","0.00"
"04:04:57","21.4","16.2","80","30.38","70","0.7","2.3","0.00","0.00"
"04:09:56","21.3","16.1","80","30.38","70","0","1.2","0.00","0.00"
"04:24:56","20.8","15.9","81","30.38","70","0.6","2.3","0.00","0.00"
"04:29:56","20.7","15.8","81","30.38","70","0.3","2.3","0.00","0.00"
"04:31:12","20.7","15.8","81","30.37","70","0","0","0.00","0.00"
"04:35:18","20.6","15.7","81","30.37","70","0","0","0.00","0.00"
"05:29:59","19.9","16.3","85.7","30.37","67","0.8","3.5","0.00","0.00"
"05:33:41","20.1","16.3","85","30.37","67","0.3","2.3","0.00","0.00"
"05:44:59","20.9","16.5","83","30.37","67","2.1","3.5","0.00","0.00"
"05:48:12","21","16.6","83","30.37","23","2.6","4","0.00","0.00"
"06:12:59","21.8","16.6","80","30.37","339","1.9","4","0.00","0.00"
"06:34:58","21.9","16.2","78.3","30.37","339","0.7","3.5","0.00","0.00"
"06:36:07","22","16.2","78","30.37","339","0.9","2.3","0.00","0.00"
"07:09:58","21.4","15.6","78","30.37","336","1.4","3.5","0.00","0.00"
"07:14:58","21.3","15.5","78","30.37","336","0.2","2.3","0.00","0.00"
"07:16:27","21.2","15.6","78.6","30.37","336","0.5","2.3","0.00","0.00"
"07:37:25","21","15.5","79","30.36","334","0.1","4","0.00","0.00"
"07:56:59","21.3","15.5","78","30.36","334","0.9","2.3","0.00","0.00"
"08:09:57","22","16.2","77.9","30.36","334","0.2","3.5","0.00","0.00"
"08:14:57","22.4","16.2","76.8","30.37","334","0.3","2.3","0.00","0.00"
"08:19:28","22.9","16.2","75","30.37","321","1.1","3.5","0.00","0.00"
"08:38:56","25.1","16.7","70","30.36","312","1.7","3.5","0.00","0.00"
"09:19:56","30","19.2","63.8","30.34","310","0.8","4","0.00","0.00"
"09:24:59","30.7","20","64","30.34","309","1.8","4","0.00","0.00"
"09:29:59","31.3","20.8","64.9","30.34","295","1.4","3.5","0.00","0.00"
"09:34:58","32.4","22.1","65.5","30.33","27","1.9","4","0.00","0.00"
"09:39:58","33.3","22.4","64","30.33","91","0.4","3","0.00","0.00"
"09:44:57","34.2","22.5","62.1","30.33","89","1.6","3.5","0.00","0.00"
"09:49:58","34.7","22.6","60.9","30.33","89","0.5","2.3","0.00","0.00"
"09:54:57","35.3","22.8","60","30.33","44","0.4","4","0.00","0.00"
"09:59:56","35.6","22.4","58.3","30.33","322","1.8","4","0.00","0.00"
"10:04:58","35.8","23.2","59.7","30.32","33","1.4","3.5","0.00","0.00"
"10:09:56","36.3","22.7","57.5","30.32","2","1.6","3.5","0.00","0.00"
"10:14:56","36.2","22.6","57.5","30.32","316","1.3","3.5","0.00","0.00"
"10:19:56","36.6","23.3","58.4","30.31","57","1.4","4","0.00","0.00"
"10:24:59","37.2","23.9","58.2","30.31","58","1.1","3.5","0.00","0.00"
"10:29:58","37.9","23.8","56.7","30.31","59","1.5","3.5","0.00","0.00"
"10:34:58","38.2","23.9","56.1","30.31","96","2.2","4","0.00","0.00"
"10:39:57","38.2","24.2","56.6","30.31","103","1.4","4","0.00","0.00"
"10:44:57","38.4","24.5","56.9","30.31","108","1.1","3.5","0.00","0.00"
"10:49:58","38.4","23.9","55.5","30.31","306","1.3","4","0.00","0.00"
"10:54:57","38.3","24.4","57","30.31","232","2.2","4","0.00","0.00"
"10:59:57","38.1","24.4","57.4","30.31","233","2.5","4","0.00","0.00"
"11:04:59","38","24.6","58.1","30.31","234","2.6","4","0.00","0.00"
"11:09:58","37.8","24.5","58.4","30.31","229","1.5","3.5","0.00","0.00"
"11:14:58","37.8","24.8","59.2","30.32","225","1.7","4","0.00","0.00"
"11:19:57","38","24.8","59","30.32","224","1.9","4","0.00","0.00"
"11:24:57","38.2","24.6","57.7","30.32","264","1.9","4","0.00","0.00"
"11:29:56","38.3","24.7","57.7","30.32","278","1","3.5","0.00","0.00"
"11:34:56","38.6","25.4","58.8","30.29","274","1.6","3.5","0.00","0.00"
"11:39:56","38.7","25.8","59.3","30.29","288","1.3","3.5","0.00","0.00"
"11:44:56","38.9","25.6","58.5","30.29","304","2.1","4","0.00","0.00"
"11:49:59","39.2","26.3","59.3","30.28","340","2.1","5","0.00","0.00"
"11:54:59","39.8","26.8","59.7","30.28","333","1.1","4","0.00","0.00"
"11:59:58","40.2","26.8","58.7","30.28","306","2.6","4","0.00","0.00"
"12:04:56","40.2","27","59","30.27","246","1.4","3.5","0.00","0.00"
"12:09:59","40","26.9","59.2","30.27","308","1.1","3.5","0.00","0.00"
"12:14:56","39.9","26.7","59.1","30.27","257","1.6","4","0.00","0.00"
"12:19:59","39.8","26.6","59.1","30.25","237","1.1","3.5","0.00","0.00"
"12:24:58","39.7","27","60.1","30.25","237","1.8","3.5","0.00","0.00"
"12:29:57","39.5","27","60.5","30.26","237","1.1","3","0.00","0.00"
"12:34:57","39.5","27.3","61.3","30.26","270","1.7","3.5","0.00","0.00"
"12:39:56","39.5","27.1","60.8","30.26","300","1.6","4","0.00","0.00"
"12:44:59","39.7","27.1","60.5","30.26","263","2","4","0.00","0.00"
"12:49:59","39.9","27.1","60","30.26","327","2.3","4","0.00","0.00"
"12:54:58","40.1","27.3","60.2","30.26","294","1.8","4","0.00","0.00"
"12:59:57","40.3","27","58.8","30.26","308","2","4","0.00","0.00"
"13:04:59","40.2","26.5","57.7","30.24","330","1.4","4","0.00","0.00"
"13:09:57","40","26.1","57.3","30.24","328","1.6","5","0.00","0.00"
"13:14:57","39.7","26.1","58.1","30.24","329","2.3","4","0.00","0.00"
"13:19:56","39.7","26.6","59.2","30.22","323","1.9","4","0.00","0.00"
"13:24:59","40","27","59.5","30.22","336","1.2","4","0.00","0.00"
"13:29:59","40.2","26.7","58.3","30.22","325","2.9","5","0.00","0.00"
"13:34:58","40.4","27.6","59.9","30.20","307","2.2","5","0.00","0.00"
"13:39:57","40.8","27.5","58.8","30.20","339","3","6","0.00","0.00"
"13:44:57","41","27.4","58.3","30.20","311","1.6","4","0.00","0.00"
"13:49:56","41.2","28.1","59.4","30.19","338","1.8","5","0.00","0.00"
"13:54:59","41.5","28.2","59.1","30.19","338","1.4","4","0.00","0.00"
"13:59:58","41.7","28.4","58.9","30.19","10","0.5","2.3","0.00","0.00"
"14:04:56","41.9","28.7","59.3","30.18","4","1","3.5","0.00","0.00"
"14:09:58","41.8","28.6","59.3","30.18","341","1.2","5","0.00","0.00"
"14:14:58","41.6","28.3","59","30.20","336","0.8","4.6","0.00","0.00"
"14:19:57","41.5","28.1","58.7","30.20","336","0.4","3.5","0.00","0.00"
"14:24:56","41.4","27.9","58.6","30.20","336","1.4","3.5","0.00","0.00"
"14:29:59","41.3","28.3","59.6","30.20","219","1.1","3.5","0.00","0.00"
"14:34:58","41.3","28.2","59.5","30.20","217","2.2","4","0.00","0.00"
"14:39:58","41.1","28.3","60.2","30.20","217","0.8","3.5","0.00","0.00"
"14:44:58","41","28.1","59.7","30.20","217","0.7","2.3","0.00","0.00"
"14:49:57","41","28","59.5","30.20","217","0.8","2.3","0.00","0.00"
"14:54:56","41","28.4","60.5","30.20","217","0.8","3.5","0.00","0.00"
"14:59:55","41","28.3","60.1","30.20","217","1.3","3.5","0.00","0.00"
"15:04:57","41","28.4","60.4","30.19","211","1","3.5","0.00","0.00"
"15:09:59","41","28.2","59.9","30.19","206","1.1","2.3","0.00","0.00"
"15:14:59","41","28.3","60.2","30.19","206","0.5","2.3","0.00","0.00"
"15:19:58","41","28.2","60","30.19","206","0.5","2.3","0.00","0.00"
"15:24:58","41","28.6","61","30.19","206","0.4","2.3","0.00","0.00"
"15:29:57","41","28.5","60.7","30.19","207","0.7","2.3","0.00","0.00"
"15:34:56","41","28.3","60.2","30.17","207","0.7","2.3","0.00","0.00"
"15:39:59","41","28.4","60.5","30.17","205","0.8","3.5","0.00","0.00"
"15:44:58","41.1","29","61.7","30.17","173","1.4","3.5","0.00","0.00"
"15:49:57","41.1","28.8","61.2","30.16","173","1.5","3.5","0.00","0.00"
"15:54:57","41.1","28.8","61.3","30.16","148","1.1","3","0.00","0.00"
"15:59:56","41.1","28.9","61.5","30.17","140","0.7","2.3","0.00","0.00"
"16:04:58","41.1","29","61.8","30.17","140","0","1.2","0.00","0.00"
"16:09:56","41.1","29.1","62.1","30.17","140","0","0","0.00","0.00"
"16:14:56","41.2","30.1","64.5","30.17","140","0","0","0.00","0.00"
"16:19:59","41.2","30","64.3","30.15","140","0","0","0.00","0.00"
"16:24:59","41.2","29.6","63.3","30.15","140","0","0","0.00","0.00"
"16:29:57","41.1","29.8","64","30.15","140","0.4","2.3","0.00","0.00"
"16:34:57","41.1","30.1","64.8","30.15","140","0.3","2.3","0.00","0.00"
"16:39:56","41.1","30.3","65.2","30.15","140","0","1.2","0.00","0.00"
"16:44:59","41.1","30.3","65.4","30.15","96","0.4","3.5","0.00","0.00"
"16:49:59","41","30.4","65.8","30.14","63","0.5","2.3","0.00","0.00"
"16:54:58","40.9","30.3","65.6","30.14","63","0.1","2.3","0.00","0.00"
"16:59:57","40.8","30.3","66","30.14","63","0","1.2","0.00","0.00"
"17:04:58","40.7","30.4","66.5","30.14","63","0.5","2.3","0.00","0.00"
"17:09:56","40.6","30.5","67","30.14","62","0.4","2.3","0.00","0.00"
"17:14:57","40.4","30.4","67.2","30.14","62","0.5","2.3","0.00","0.00"
"17:19:56","40.3","30.2","67.2","30.12","15","0.4","3","0.00","0.00"
"17:24:56","40.1","30.4","68.2","30.12","11","0.2","3.5","0.00","0.00"
"17:29:56","39.9","30.5","68.9","30.12","11","0.7","2.3","0.00","0.00"
"17:34:59","39.8","30.5","69","30.12","12","0.6","3.5","0.00","0.00"
"17:39:58","39.7","30","68.2","30.12","349","1","4","0.00","0.00"
"17:44:58","39.5","29.9","68.2","30.13","342","0.6","2.3","0.00","0.00"
"17:49:58","39.4","30","68.6","30.13","342","0.2","2.3","0.00","0.00"
"17:54:57","39.3","29.8","68.5","30.13","342","0","0","0.00","0.00"
"17:59:57","39.2","29.9","69","30.13","342","0.4","1.2","0.00","0.00"
"18:04:59","39.1","29.8","69","30.13","342","0.2","1.2","0.00","0.00"
"18:09:58","39","29.9","69.6","30.13","342","0","0","0.00","0.00"
"18:14:58","38.8","29.7","69.7","30.15","342","1.1","2.3","0.00","0.00"
"18:19:58","38.7","29.8","70","30.15","342","1.4","3.5","0.00","0.00"
"18:24:57","38.7","29.8","70","30.15","342","0","2.3","0.00","0.00"
"18:29:57","38.6","29.7","70","30.15","342","0.7","2.3","0.00","0.00"
"18:34:57","38.6","29.8","70.5","30.14","342","0","0","0.00","0.00"
"18:39:57","38.5","29.9","71","30.14","342","0.1","2.3","0.00","0.00"
"18:44:57","38.4","29.9","71.3","30.14","342","0","1.2","0.00","0.00"
"18:49:57","38.2","30","72","30.14","342","0","0","0.00","0.00"
"18:54:57","38.1","30.1","72.8","30.14","342","0","0","0.00","0.00"
"18:59:56","38","30.2","73.4","30.14","342","0","0","0.00","0.00"
"19:04:58","37.9","30.5","74.4","30.12","339","0.2","2","0.00","0.00"
"19:09:56","37.6","30.4","75","30.12","336","1.6","4","0.00","0.00"
"19:14:57","37.3","30.5","76.3","30.13","336","1","2.3","0.00","0.00"
"19:19:56","37","30.7","77.4","30.13","336","0.3","2.3","0.00","0.00"
"19:24:56","36.9","30.7","78","30.13","336","0.3","2.3","0.00","0.00"
"19:29:59","36.7","30.8","78.9","30.13","336","0.3","2","0.00","0.00"
"19:34:59","36.6","31.1","80.4","30.12","336","0.8","2.3","0.00","0.00"
"19:39:59","36.4","31.2","81.5","30.12","336","0.1","2.3","0.00","0.00"
"19:44:59","36.2","30.8","80.6","30.12","336","0.1","2","0.00","0.00"
"19:49:58","36.2","30.9","81","30.11","335","1.1","3.5","0.00","0.00"
"19:54:58","36.2","30.9","81","30.11","305","1.4","3.5","0.00","0.00"
"19:59:57","36.2","31","81.3","30.12","292","0.8","3.5","0.00","0.00"
"20:04:59","36.1","31","81.6","30.12","292","0","1.2","0.00","0.00"
"20:09:58","36.1","30.7","80.7","30.12","292","0.1","1.2","0.00","0.00"
"20:14:58","36.1","31","81.6","30.12","292","0","0","0.00","0.00"
"20:19:58","36","31.1","82.3","30.11","292","0.5","2.3","0.00","0.00"
"20:24:58","35.9","31","82.5","30.11","292","0","1.2","0.00","0.00"
"20:29:58","35.9","31.1","82.8","30.11","292","0","0","0.00","0.00"
"20:34:57","35.8","31","82.7","30.11","292","0","0","0.00","0.00"
"20:39:57","35.7","31","83","30.11","292","0","0","0.00","0.00"
"20:44:57","35.6","30.9","83","30.11","292","0","0","0.00","0.00"
"20:49:57","35.7","31","83","30.11","292","0","0","0.00","0.00"
"20:54:56","35.6","30.9","83","30.11","292","0.4","2.3","0.00","0.00"
"20:59:56","35.5","30.8","83","30.11","292","0.2","2.3","0.00","0.00"
"21:04:58","35.4","30.6","82.2","30.09","292","0.2","2","0.00","0.00"
"21:09:56","35.4","30.5","82.2","30.09","292","0.5","2.3","0.00","0.00"
"21:14:56","35.3","30.6","82.6","30.09","292","0.1","2","0.00","0.00"
"21:19:56","35.2","30.5","82.5","30.08","292","0.9","2.3","0.00","0.00"
"21:24:59","35.2","30.3","82.1","30.08","292","0.6","2.3","0.00","0.00"
"21:29:59","35.2","30.1","81.3","30.08","292","0.8","2.3","0.00","0.00"
"21:34:59","35.3","29.8","80.2","30.08","292","1.2","2.3","0.00","0.00"
"21:39:59","35.4","29.9","80.3","30.08","292","0.3","2.3","0.00","0.00"
"21:44:59","35.4","30.1","81","30.08","292","0.1","1.2","0.00","0.00"
"21:49:58","35.3","30.1","81","30.08","292","0","0","0.00","0.00"
"21:54:58","35.3","30.3","81.7","30.08","292","0","1","0.00","0.00"
"21:59:58","35.1","30.2","82","30.08","292","0.2","2.3","0.00","0.00"
"22:04:56","35","30","81.5","30.08","292","0","1.2","0.00","0.00"
"22:09:58","35","30.1","82","30.08","288","0.1","3","0.00","0.00"
"22:14:58","34.9","30","82","30.08","288","0.3","3.5","0.00","0.00"
"22:19:57","34.8","29.7","81.2","30.07","288","0","1.2","0.00","0.00"
"22:24:57","34.9","29.5","80.4","30.07","288","0","0","0.00","0.00"
"22:29:57","34.9","29.4","80","30.07","288","0","0","0.00","0.00"
"22:34:56","34.9","29.4","80","30.07","288","0","0","0.00","0.00"
"22:39:56","34.9","29.4","80","30.07","288","0","0","0.00","0.00"
"22:44:56","34.9","29.5","80.3","30.07","288","0","0","0.00","0.00"
"22:49:55","34.7","29.6","81.3","30.07","288","0","0","0.00","0.00"
"22:54:59","34.5","29.3","81","30.07","288","0.1","2","0.00","0.00"
"22:59:59","34.4","28.9","80","30.07","288","0.4","2.3","0.00","0.00"
"23:04:57","34.4","28.9","80","30.06","288","0","0","0.00","0.00"
"23:09:59","34.2","28.7","80","30.06","288","0","0","0.00","0.00"
"23:14:59","33.9","28.5","80.1","30.06","288","0","0","0.00","0.00"
"23:19:58","33.6","28.2","80.3","30.06","288","0","0","0.00","0.00"
"23:24:58","33.4","27.9","80.2","30.06","288","0","1.2","0.00","0.00"
"23:29:58","33.1","27.9","81","30.06","288","0","0","0.00","0.00"
"23:34:57","32.8","27.6","81","30.05","288","0","0","0.00","0.00"
"23:39:57","32.6","27.4","81","30.05","288","0","0","0.00","0.00"
"23:44:57","32.3","27.3","81.7","30.05","288","0.2","1.2","0.00","0.00"
"23:49:57","32.1","27.2","82","30.05","288","0.1","1.2","0.00","0.00"
"23:54:56","31.8","27.1","82.8","30.05","288","0","0","0.00","0.00"
"23:59:55","31.5","26.8","82.5","30.06","288","0","0","0.00","0.00"
